Regional Weather Roundup
Issued by NWS Goodland, KS

Home | Current Version | Previous Version | Graphics & Text | Print | Product List | Glossary On
Versions: 1 2 3 4 5 6 7 8 9 10 11 12 13 14 15 16 17 18 19 20 21 22 23 24 25 26 27 28 29 30 31 32 33 34 35 36 37 38 39 40 41 42 43 44 45 46 47 48 49 50
000
ASUS43 KGLD 071259
RWRGLD

GOODLAND FORECAST AREA HOURLY WEATHER ROUNDUP
NATIONAL WEATHER SERVICE GOODLAND KS
600 AM MST SUN FEB 07 2016

...OFFICIAL OBSERVATIONS...

CITY           SKY/WX    TMP DP  RH WIND       PRES   REMARKS
GOODLAND KS    CLOUDY    27  17  66 NW13      30.17R WCI  16
HILL CITY KS   CLOUDY    36  27  69 NW10      30.14R
IMPERIAL NEB   CLOUDY    32  17  54 NW17      30.16R
MCCOOK NEB     MOCLDY    30  21  69 W12       30.14R
AKRON CO       CLEAR     21  15  78 N15       30.18R WCI   8
BURLINGTON CO  CLOUDY    23  15  71 NW9       30.18R
LIMON CO       CLOUDY    15  11  83 N7        30.19R
$$

...UNOFFICIAL OBSERVATIONS...

CITY           SKY/WX    TMP DP  RH WIND       PRES   REMARKS
COLBY KS       CLEAR     27  23  86 W9        30.17R
GOVE KS          N/A     34  32  92 MISG        N/A
LENORA KS        N/A     34  32  92 MISG        N/A
NORTON KS      CLEAR     34  23  64 W13       30.11
SHARON SPRINGS   N/A     32  24  72 NW7         N/A
KIT CARSON CO    N/A     31  23  71 MISG        N/A
YUMA CO          N/A     26  17  70 N10         N/A  WCI  16
$$



USA.gov is the U.S. government's official web portal to all federal, state and local government web resources and services.